Location: Drignac
(45.1667°N, 2.0333°E)
Time: 18:46:53
(UTC+00:00)

Cosmos 1943 Rocket - Pass Details

Date: 29 March 2020
Orbit: 811 x 845 km, 71.0° (Epoch: 02 June)

Event Time Altitude Azimuth Distance (km) Brightness Sun altitude
Rises 20:13:02 0° 334° (NNW) 3,350 6.2 -20.4°
Reaches altitude 10° 20:15:28 10° 336° (NNW) 2,418 5.3 -20.7°
Maximum altitude 20:21:01 82° 64° (ENE) 836 2.0 -21.6°
Enters shadow 20:22:48 45° 145° (SE) 1,112 2.4 -21.9°
